Regional Weather Roundup
Issued by NWS Charleston, WV

Home | Current Version | Previous Version | Graphics & Text | Print | Product List | Glossary On
Versions: 1 2 3 4 5 6 7 8 9 10 11 12 13 14 15 16 17 18 19 20 21 22 23 24 25 26 27 28 29 30 31 32 33 34 35 36 37 38 39 40 41 42 43 44 45 46 47 48 49 50
000
ASUS41 KRLX 031810
RWRRLX
West Virginia Regional Weather Roundup
National Weather Service Charleston WV
200 PM EDT SUN MAY 03 2015

Note: "fair" indicates few or no clouds below 12,000 feet with no
significant weather and/or obstructions to visibility.

WVZ003-031900-
Northern Panhandle of West Virginia

CITY           SKY/WX    TMP DP  RH WIND       PRES   REMARKS
WHEELING       MOSUNNY   75  44  33 SW8       30.12F
$$

WVZ009-031900-
Northwest West Virginia

CITY           SKY/WX    TMP DP  RH WIND       PRES   REMARKS
PARKERSBURG    PTSUNNY   74  43  32 W6        30.17F
$$

WVZ006-031900-
Western West Virginia

CITY           SKY/WX    TMP DP  RH WIND       PRES   REMARKS
HUNTINGTON     SUNNY     74  38  27 CALM      30.14F
$$

WVZ015-031900-
West Central West Virginia

CITY           SKY/WX    TMP DP  RH WIND       PRES   REMARKS
CHARLESTON     PTSUNNY   77  38  24 W8        30.14F
$$

WVZ022-031-031900-
North Central West Virginia

CITY           SKY/WX    TMP DP  RH WIND       PRES   REMARKS
CLARKSBURG     PTSUNNY   72  42  34 SW7       30.15F
MORGANTOWN     MOSUNNY   76  40  27 MISG      30.15F
$$

WVZ025-035-042-045-031900-
Southern West Virginia

CITY           SKY/WX    TMP DP  RH WIND       PRES   REMARKS
BECKLEY        PTSUNNY   68  32  26 VRB5      30.20F
LOGAN            N/A     73  36  25 VRB7      30.14F
BLUEFIELD      CLOUDY    69  31  24 CALM      30.21F
LEWISBURG      MOSUNNY   70  32  24 W3        30.20F
$$

WVZ047-031900-
Northern Mountains of West Virginia

CITY           SKY/WX    TMP DP  RH WIND       PRES   REMARKS
ELKINS         PTSUNNY   70  37  29 CALM      30.17F
$$

WVZ052-031900-
Eastern Panhandle of West Virginia

CITY           SKY/WX    TMP DP  RH WIND       PRES   REMARKS
MARTINSBURG    PTSUNNY   76  39  26 SW9       30.11F
PETERSBURG     PTSUNNY   77  34  20 E3        30.14S
$$


USA.gov is the U.S. government's official web portal to all federal, state and local government web resources and services.